Location: Columbia
(38.9520°N, 92.3340°W)
Time: 17:01:29
(UTC-05:00)

Cosmos 1603 - Visible Passes

Search period start: 23 July 2014 00:00
Search period end: 02 August 2014 00:00
Orbit: 832 x 860 km, 71.0° (Epoch: 23 July)

Date Brightness Start Highest point End Pass type
(mag) Time Alt. Az. Time Alt. Az. Time Alt. Az.
23 Jul 5.6 00:39:18 10° N 00:43:25 20° NE 00:45:04 18° ENE visible
23 Jul 4.1 02:22:22 10° NNW 02:26:55 52° WNW 02:26:55 52° WNW visible
24 Jul 5.6 00:25:32 10° N 00:29:35 20° NE 00:31:04 18° ENE visible
24 Jul 4.2 02:08:33 10° NNW 02:12:56 50° WNW 02:12:56 50° WNW visible
25 Jul 5.6 00:11:47 10° N 00:15:45 19° NE 00:17:08 18° ENE visible
25 Jul 4.3 01:54:44 10° NNW 01:59:00 49° NW 01:59:00 49° NW visible
25 Jul 5.6 23:58:02 10° N 00:01:56 19° NE 00:03:15 17° ENE visible
26 Jul 4.4 01:40:55 10° NNW 01:45:07 48° NW 01:45:07 48° NW visible
26 Jul 5.6 23:44:17 10° N 23:48:06 18° NE 23:49:24 17° ENE visible
27 Jul 4.4 01:27:06 10° NNW 01:31:17 49° NW 01:31:17 49° NW visible
27 Jul 5.6 23:30:32 10° N 23:34:16 18° NE 23:35:37 16° ENE visible
28 Jul 4.4 01:13:18 10° NNW 01:17:29 49° NW 01:17:29 49° NW visible
28 Jul 5.6 23:16:47 10° NNE 23:20:27 17° NE 23:21:51 16° ENE visible
29 Jul 4.4 00:59:29 10° NNW 01:03:44 51° NW 01:03:44 51° NW visible
29 Jul 5.6 23:03:03 10° NNE 23:06:37 17° NE 23:08:08 15° ENE visible
30 Jul 4.3 00:45:41 10° NNW 00:50:00 53° NW 00:50:00 53° NW visible
30 Jul 5.7 22:49:19 10° NNE 22:52:47 16° NE 22:54:26 15° ENE visible
31 Jul 4.2 00:31:52 10° NNW 00:36:19 55° NW 00:36:19 55° NW visible
31 Jul 5.7 22:35:35 10° NNE 22:38:58 16° NE 22:40:47 14° ENE visible
01 Aug 4.1 00:18:04 10° NNW 00:22:40 59° NW 00:22:40 59° NW visible
01 Aug 5.7 22:21:51 10° NNE 22:25:08 15° NE 22:27:10 13° ENE visible
